Home   Weather   Nukualofa   Past weeks

Flag for Tonga Past Weather in Nukualofa, Tonga — Yesterday and Last 2 Weeks

Now
82 °F

Passing clouds.


Feels Like: 87 °F
Forecast: 77 / 82 °F
Wind: 7 mph from Southeast

Location: Fua'Amotu

Current Time: Apr 28, 2017 at 5:51:06 pm

Latest Report: Apr 28, 2017 at 5:00 pm


Visibility: N/A

Pressure: 29.89 "Hg

Humidity: 70%

Dew Point: 72 °F

Location of NukualofaLocation

Past Weather in Nukualofa — Graph

°F

Nukualofa Temperature Yesterday

Maximum temperature yesterday: 84 °F (at 1:00 pm)
Minimum temperature yesterday: 73 °F (at 3:00 am)
Average temperature yesterday: 79 °F

High & Low Weather Summary for the Past Weeks

 TemperatureHumidityPressure
High88 °F (Apr 22, 4:00 pm)100% (Apr 15, 5:00 am)30.01 "Hg (Apr 15, 5:00 am)
Low68 °F (Apr 17, 2:00 am)62% (Apr 15, 1:00 pm)29.71 "Hg (Apr 13, 4:00 pm)
Average79 °F83%29.89 "Hg
* Reported Apr 13 4:00 pm — Apr 28 4:00 pm, Nukualofa, Weather by CustomWeather, © 2017

Note: Actual official high and low records may vary slightly from our data, if they occured in-between our weather recording intervals... More about our weather records

Advertising

Nukualofa Weather History for the Previous 24 Hours

Scroll right to see more
 ConditionsComfort  
Time TempWeatherWind HumidityBarometerVisibility
4:00 pm
Fri, Apr 28
82 °FScattered clouds.10 mph74%29.89 "HgN/A
3:00 pm84 °FScattered clouds.12 mph70%29.89 "HgN/A
2:00 pm84 °FPassing clouds.12 mph70%29.92 "HgN/A
1:00 pm82 °FScattered clouds.9 mph70%29.92 "HgN/A
12:00 pm84 °FScattered clouds.10 mph70%29.95 "HgN/A
11:00 am84 °FPassing clouds.10 mph70%29.98 "HgN/A
10:00 am82 °FPassing clouds.13 mph70%29.98 "HgN/A
9:00 am81 °FScattered clouds.8 mph79%29.95 "HgN/A
8:00 am79 °FPassing clouds.7 mph79%29.92 "HgN/A
7:00 am77 °FPassing clouds.2 mph83%29.89 "HgN/A
6:00 am77 °FPassing clouds.2 mph83%29.89 "HgN/A
5:00 am77 °FPassing clouds.5 mph83%29.89 "HgN/A
4:00 am77 °FPassing clouds.No wind83%29.89 "HgN/A
3:00 am77 °FPassing clouds.5 mph83%29.92 "HgN/A
2:00 am77 °FPassing clouds.7 mph89%29.92 "HgN/A
1:00 am77 °FPassing clouds.6 mph89%29.92 "HgN/A
12:00 am77 °FPassing clouds.6 mph89%29.92 "HgN/A
11:00 pm
Thu, Apr 27
77 °FPassing clouds.8 mph89%29.92 "HgN/A
10:00 pm79 °FPassing clouds.7 mph84%29.92 "HgN/A
9:00 pm79 °FPassing clouds.6 mph84%29.92 "HgN/A
8:00 pm79 °FPassing clouds.9 mph84%29.92 "HgN/A
7:00 pm79 °FPassing clouds.3 mph89%29.92 "HgN/A
6:00 pm81 °FPartly sunny.3 mph84%29.89 "HgN/A
5:00 pm82 °FPartly sunny.5 mph79%29.89 "HgN/A
Weather by CustomWeather, © 2017

See weather overviewHow to use our weather pages